KG4QXF Weather Reports


time (UTC)temp
C
wind
direction
speed
KPH
gust
KPH
rain 1hr
cm
rain 24hr
cm
rain mn
cm
humidity
%
barometer
mb
20260507040840 23 158 6.4 9.7 0.00 0.00 0.00 88 1016.0
20260507040336 23 80 3.2 14.5 0.00 0.00 0.00 88 1016.0
20260507035832 23 176 4.8 9.7 0.00 0.00 0.00 88 1016.0
20260507035328 23 121 3.2 11.3 0.00 0.00 0.00 88 1015.9
20260507034826 23 154 3.2 6.4 0.00 0.00 0.00 88 1015.7
20260507034322 22 160 1.6 6.4 0.00 0.00 0.00 88 1015.9
20260507033821 22 111 3.2 4.8 0.00 0.00 0.00 89 1015.6
20260507033318 22 147 6.4 6.4 0.00 0.00 0.00 89 1015.6
20260507032815 22 127 3.2 9.7 0.00 0.00 0.00 89 1015.8
20260507032311 22 178 0.0 3.2 0.00 0.00 0.00 89 1015.6
20260507031808 22 190 0.0 9.7 0.00 0.00 0.00 89 1015.9
20260507031305 22 171 0.0 4.8 0.00 0.00 0.00 89 1015.8
20260507030801 22 123 0.0 3.2 0.00 0.00 0.00 90 1015.4
20260507030259 22 181 4.8 6.4 0.00 0.00 0.00 90 1015.5
20260507025756 22 78 1.6 6.4 0.00 0.00 0.00 89 1015.8
20260507025253 22 177 1.6 6.4 0.00 0.00 0.00 90 1016.1
20260507024751 22 176 3.2 6.4 0.00 0.00 0.00 90 1015.8
20260507024248 22 102 0.0 4.8 0.00 0.00 0.00 90 1016.0
20260507023743 22 169 0.0 4.8 0.00 0.00 0.00 90 1015.4
20260507023240 22 147 1.6 6.4 0.00 0.00 0.00 90 1015.3
20260507022738 22 197 3.2 4.8 0.00 0.00 0.00 90 1015.3
20260507022233 22 122 3.2 11.3 0.00 0.00 0.00 89 1015.6
20260507021730 22 157 3.2 9.7 0.00 0.00 0.00 89 1015.5
20260507021225 22 337 1.6 6.4 0.00 0.00 0.00 89 1015.6
20260507020724 22 134 6.4 6.4 0.00 0.00 0.00 89 1016.1
20260507020220 22 140 6.4 9.7 0.00 0.00 0.00 89 1016.1
20260507015718 22 126 1.6 9.7 0.00 0.00 0.00 89 1016.1
20260507015215 22 142 4.8 12.9 0.00 0.00 0.00 89 1016.0
20260507014706 22 157 1.6 6.4 0.00 0.00 0.00 89 1015.9
20260507014202 22 147 3.2 9.7 0.00 0.00 0.00 89 1016.0
20260507013659 22 154 1.6 9.7 0.00 0.00 0.00 89 1016.0
20260507013157 22 169 1.6 9.7 0.00 0.00 0.00 89 1016.0
20260507012654 22 84 1.6 4.8 0.00 0.00 0.00 89 1015.9
20260507012149 22 168 4.8 6.4 0.00 0.00 0.00 89 1016.3
20260507011647 22 202 0.0 6.4 0.00 0.00 0.00 89 1016.3
20260507011143 22 142 1.6 14.5 0.00 0.00 0.00 89 1016.6
20260507010638 22 151 6.4 6.4 0.00 0.00 0.00 89 1016.4
20260507010134 22 99 1.6 4.8 0.00 0.00 0.00 89 1016.5
20260507005632 22 108 4.8 6.4 0.00 0.00 0.00 89 1016.4
20260507005128 22 157 4.8 9.7 0.00 0.00 0.00 89 1016.3
20260507004625 22 166 8.0 9.7 0.00 0.00 0.00 89 1016.3
20260507004122 22 149 1.6 9.7 0.00 0.00 0.00 89 1016.1
20260507003619 22 162 1.6 3.2 0.00 0.00 0.00 89 1016.2
20260507003114 22 113 0.0 9.7 0.00 0.00 0.00 89 1016.2
20260507002610 22 145 3.2 12.9 0.00 0.00 0.00 88 1016.2
20260507002106 22 166 3.2 6.4 0.00 0.00 0.00 88 1016.0
20260507001603 22 131 9.7 12.9 0.00 0.00 0.00 88 1016.4
20260507001101 22 153 3.2 6.4 0.00 0.00 0.00 87 1016.3
20260507000556 22 152 1.6 11.3 0.00 0.00 0.00 87 1016.3
20260507000052 22 174 1.6 9.7 0.00 0.00 0.00 86 1016.1
20260506235550 23 157 4.8 6.4 0.00 0.00 0.00 86 1016.6
20260506235045 23 112 4.8 6.4 0.00 0.00 0.00 86 1016.3
20260506234543 23 137 1.6 12.9 0.00 0.00 0.00 85 1016.4
20260506234039 23 147 3.2 9.7 0.00 0.00 0.00 84 1016.3
20260506233537 23 169 3.2 12.9 0.00 0.00 0.00 84 1016.2
20260506233033 23 169 3.2 6.4 0.00 0.00 0.00 83 1016.2
20260506232529 23 148 3.2 6.4 0.00 0.00 0.00 82 1016.1
20260506232024 23 113 0.0 3.2 0.00 0.00 0.00 82 1016.2
20260506231522 23 141 9.7 16.1 0.00 0.00 0.00 81 1016.4
20260506231015 23 153 3.2 4.8 0.00 0.00 0.00 82 1016.5
20260506230510 23 156 1.6 6.4 0.00 0.00 0.00 82 1016.5
20260506230009 23 203 1.6 3.2 0.00 0.00 0.00 82 1016.3
20260506225505 23 119 1.6 11.3 0.00 0.00 0.00 82 1016.2
20260506225001 23 148 3.2 9.7 0.00 0.00 0.00 82 1016.3
20260506224458 23 114 1.6 11.3 0.00 0.00 0.00 81 1016.4
20260506223955 23 30 6.4 14.5 0.00 0.00 0.00 81 1016.3
20260506223451 23 147 14.5 24.1 0.00 0.00 0.00 80 1016.2
20260506222948 23 119 6.4 16.1 0.00 0.00 0.00 80 1016.0
20260506222444 23 86 1.6 14.5 0.00 0.00 0.00 79 1015.9
20260506221941 24 135 3.2 11.3 0.00 0.00 0.00 79 1016.1
20260506221438 24 135 8.0 14.5 0.00 0.00 0.00 78 1015.9
20260506220936 25 103 1.6 6.4 0.00 0.00 0.00 78 1015.9
20260506220431 24 69 1.6 11.3 0.00 0.00 0.00 77 1016.2
20260506215928 25 34 3.2 6.4 0.00 0.00 0.00 76 1016.0
20260506215424 24 162 3.2 12.9 0.00 0.00 0.00 77 1016.1
20260506214920 24 90 4.8 9.7 0.00 0.00 0.00 78 1016.4
20260506214417 24 139 3.2 6.4 0.00 0.00 0.00 77 1016.2
20260506213915 24 150 6.4 14.5 0.00 0.00 0.00 77 1016.4
20260506213413 24 198 1.6 6.4 0.00 0.00 0.00 77 1016.5
20260506212910 24 187 12.9 17.7 0.00 0.00 0.00 77 1016.4
20260506212405 25 148 9.7 16.1 0.00 0.00 0.00 76 1016.3
20260506211900 25 140 4.8 14.5 0.00 0.00 0.00 76 1016.5
20260506211357 25 144 3.2 9.7 0.00 0.00 0.00 76 1016.4
20260506210854 25 180 4.8 16.1 0.00 0.00 0.00 76 1016.4
20260506210351 25 149 6.4 11.3 0.00 0.00 0.00 76 1016.4
20260506205848 25 152 4.8 16.1 0.00 0.00 0.00 75 1016.4
20260506205344 25 173 1.6 11.3 0.00 0.00 0.00 74 1016.5
20260506204840 25 121 9.7 16.1 0.00 0.00 0.00 75 1016.5
20260506204338 26 170 1.6 9.7 0.00 0.00 0.00 73 1016.3
20260506203836 25 139 4.8 22.5 0.00 0.00 0.00 73 1016.3
20260506203332 25 184 4.8 11.3 0.00 0.00 0.00 71 1016.3
20260506202829 26 184 4.8 11.3 0.00 0.00 0.00 71 1016.9
20260506202327 26 104 4.8 16.1 0.00 0.00 0.00 72 1016.7
20260506201823 26 325 4.8 11.3 0.00 0.00 0.00 71 1016.9
20260506201321 26 190 11.3 14.5 0.00 0.00 0.00 71 1016.6
20260506200817 26 86 3.2 9.7 0.00 0.00 0.00 72 1016.8
20260506200313 25 171 3.2 16.1 0.00 0.00 0.00 73 1016.8
20260506195809 25 115 3.2 14.5 0.00 0.00 0.00 74 1016.8
20260506195307 26 163 3.2 9.7 0.00 0.00 0.00 72 1016.9
20260506194804 25 98 3.2 4.8 0.00 0.00 0.00 72 1017.1
20260506194300 25 238 4.8 16.1 0.00 0.00 0.00 73 1016.8
20260506193758 26 119 8.0 14.5 0.00 0.00 0.00 72 1017.1
20260506193254 26 36 3.2 14.5 0.00 0.00 0.00 72 1017.1
20260506192750 26 155 4.8 9.7 0.00 0.00 0.00 72 1017.1
20260506192248 27 99 6.4 11.3 0.00 0.00 0.00 68 1017.1
20260506191744 26 122 6.4 6.4 0.00 0.00 0.00 69 1017.2
20260506191240 27 165 11.3 14.5 0.00 0.00 0.00 69 1017.3
20260506190738 27 141 6.4 12.9 0.00 0.00 0.00 67 1017.3
20260506190234 26 137 3.2 9.7 0.00 0.00 0.00 68 1017.5
20260506185732 26 167 4.8 11.3 0.00 0.00 0.00 69 1017.7
20260506185228 27 144 0.0 3.2 0.00 0.00 0.00 68 1017.7
20260506184725 26 278 6.4 6.4 0.00 0.00 0.00 69 1017.8
20260506184223 26 165 3.2 9.7 0.00 0.00 0.00 71 1017.9
20260506183719 26 158 6.4 6.4 0.00 0.00 0.00 70 1018.2
20260506183215 26 138 8.0 9.7 0.00 0.00 0.00 70 1018.2
20260506182712 26 175 3.2 6.4 0.00 0.00 0.00 69 1018.3
20260506182209 26 143 12.9 14.5 0.00 0.00 0.00 69 1018.2
20260506181707 26 209 6.4 12.9 0.00 0.00 0.00 70 1018.0
20260506181204 26 175 3.2 9.7 0.00 0.00 0.00 71 1018.2
20260506180702 26 156 1.6 9.7 0.00 0.00 0.00 70 1018.4
20260506180157 26 200 4.8 11.3 0.00 0.00 0.00 71 1018.1
20260506175654 26 187 6.4 12.9 0.00 0.00 0.00 69 1018.2
20260506175151 26 179 4.8 9.7 0.00 0.00 0.00 71 1018.4
20260506174648 26 126 4.8 11.3 0.00 0.00 0.00 71 1018.4
20260506174145 26 168 4.8 14.5 0.00 0.00 0.00 70 1018.6
20260506173644 26 185 1.6 4.8 0.00 0.00 0.00 72 1018.5
20260506173140 26 204 6.4 11.3 0.00 0.00 0.00 71 1018.7
20260506172637 26 167 4.8 9.7 0.00 0.00 0.00 70 1018.6
20260506172133 26 100 3.2 6.4 0.00 0.00 0.00 69 1018.8
20260506171631 26 90 4.8 14.5 0.00 0.00 0.00 69 1018.6
20260506171129 26 142 6.4 9.7 0.00 0.00 0.00 67 1018.7
20260506170626 27 188 9.7 14.5 0.00 0.00 0.00 67 1018.9
20260506170122 27 153 3.2 11.3 0.00 0.00 0.00 65 1018.9
20260506165621 27 174 1.6 3.2 0.00 0.00 0.00 65 1018.8
20260506165111 27 136 9.7 14.5 0.00 0.00 0.00 67 1018.5
20260506164609 27 42 0.0 4.8 0.00 0.00 0.00 66 1018.9
20260506164106 27 75 3.2 3.2 0.00 0.00 0.00 66 1018.7
20260506163602 26 202 8.0 11.3 0.00 0.00 0.00 66 1018.8
20260506163057 27 179 6.4 12.9 0.00 0.00 0.00 65 1018.9
20260506162554 27 139 4.8 9.7 0.00 0.00 0.00 66 1018.8
20260506162051 26 183 6.4 11.3 0.00 0.00 0.00 65 1019.0
20260506161548 26 211 8.0 11.3 0.00 0.00 0.00 65 1019.2
20260506161040 26 172 4.8 12.9 0.00 0.00 0.00 65 1019.1
20260506160537 25 161 8.0 11.3 0.00 0.00 0.00 66 1019.1
20260506160034 25 139 9.7 16.1 0.00 0.00 0.00 66 1019.0
20260506155533 25 98 8.0 11.3 0.00 0.00 0.00 64 1019.1
20260506153709 26 128 4.8 9.7 0.00 0.00 0.00 63 1019.2
20260506153207 26 145 4.8 12.9 0.00 0.00 0.00 63 1018.8
20260506152703 26 192 11.3 17.7 0.00 0.00 0.00 62 1019.2
20260506152201 26 196 3.2 11.3 0.00 0.00 0.00 62 1019.2
20260506151701 26 171 6.4 9.7 0.00 0.00 0.00 64 1019.4
20260506151156 26 166 4.8 6.4 0.00 0.00 0.00 65 1019.2
20260506150653 26 179 3.2 9.7 0.00 0.00 0.00 65 1019.1
20260506150150 27 136 6.4 9.7 0.00 0.00 0.00 62 1019.0
20260506145647 26 81 1.6 4.8 0.00 0.00 0.00 65 1019.2
20260506145144 25 191 3.2 11.3 0.00 0.00 0.00 66 1019.1
20260506144642 26 160 4.8 6.4 0.00 0.00 0.00 67 1019.0
20260506144138 26 111 3.2 6.4 0.00 0.00 0.00 67 1018.9
20260506143635 25 170 3.2 9.7 0.00 0.00 0.00 67 1018.8
20260506143134 25 134 6.4 11.3 0.00 0.00 0.00 69 1018.7
20260506142632 25 119 8.0 16.1 0.00 0.00 0.00 68 1018.7
20260506142129 25 105 1.6 4.8 0.00 0.00 0.00 71 1018.7
20260506141627 25 180 3.2 6.4 0.00 0.00 0.00 71 1018.8
20260506141125 24 159 1.6 6.4 0.00 0.00 0.00 73 1019.1
20260506140622 24 123 3.2 11.3 0.00 0.00 0.00 75 1018.8
20260506140119 23 174 3.2 6.4 0.00 0.00 0.00 75 1018.9
20260506135616 23 111 6.4 12.9 0.00 0.00 0.00 75 1018.6
20260506135112 23 128 3.2 4.8 0.00 0.00 0.00 76 1018.4
20260506134609 23 156 3.2 6.4 0.00 0.00 0.00 76 1018.8
20260506134104 23 128 3.2 12.9 0.00 0.00 0.00 77 1018.9
20260506133602 23 144 4.8 9.7 0.00 0.00 0.00 77 1018.8
20260506133059 23 186 3.2 12.9 0.00 0.00 0.00 78 1018.8
20260506132556 22 151 6.4 11.3 0.00 0.00 0.00 78 1018.6
20260506132053 23 140 1.6 12.9 0.00 0.00 0.00 79 1018.6
20260506131551 22 187 3.2 3.2 0.00 0.00 0.00 80 1018.5
20260506131047 23 140 8.0 11.3 0.00 0.00 0.00 79 1018.5
20260506130544 22 83 0.0 1.6 0.00 0.00 0.00 80 1018.6
20260506130041 22 113 1.6 9.7 0.00 0.00 0.00 79 1018.5
20260506125540 22 124 1.6 3.2 0.00 0.00 0.00 80 1018.5
20260506125037 22 161 3.2 6.4 0.00 0.00 0.00 80 1018.5
20260506124535 22 126 1.6 9.7 0.00 0.00 0.00 81 1018.3
20260506124032 22 177 3.2 4.8 0.00 0.00 0.00 81 1018.1
20260506123530 22 147 6.4 11.3 0.00 0.00 0.00 81 1018.3
20260506123028 21 168 1.6 4.8 0.00 0.00 0.00 81 1018.6
20260506122524 21 142 3.2 3.2 0.00 0.00 0.00 82 1018.4
20260506122023 21 168 1.6 4.8 0.00 0.00 0.00 83 1018.3
20260506121519 21 152 3.2 9.7 0.00 0.00 0.00 84 1018.3
20260506121016 21 159 1.6 6.4 0.00 0.00 0.00 85 1018.3
20260506120514 21 158 1.6 6.4 0.00 0.00 0.00 86 1018.3
20260506120011 20 102 0.0 1.6 0.00 0.00 0.00 89 1018.3
20260506115509 20 156 1.6 3.2 0.00 0.00 0.00 92 1018.2
20260506115007 19 152 3.2 3.2 0.00 0.00 0.00 95 1018.1
20260506114504 18 153 0.0 3.2 0.00 0.00 0.00 97 1018.0
20260506114003 18 134 0.0 1.6 0.00 0.00 0.00 97 1018.1
20260506113500 18 196 0.0 0.0 0.00 0.00 0.00 98 1018.0
20260506112956 17 178 0.0 1.6 0.00 0.00 0.00 98 1018.0
20260506112454 17 220 0.0 0.0 0.00 0.00 0.00 98 1017.8
20260506111951 17 221 0.0 0.0 0.00 0.00 0.00 98 1017.9
20260506111449 17 221 0.0 0.0 0.00 0.00 0.00 98 1018.1
20260506110946 17 221 0.0 0.0 0.00 0.00 0.00 97 1017.9
20260506110444 17 223 0.0 0.0 0.00 0.00 0.00 97 1017.7
20260506105940 16 218 0.0 0.0 0.00 0.00 0.00 97 1017.9
20260506105436 16 217 0.0 0.0 0.00 0.00 0.00 97 1017.9
20260506104934 16 216 0.0 0.0 0.00 0.00 0.00 97 1017.8
20260506104432 16 243 0.0 0.0 0.00 0.00 0.00 97 1017.7
20260506103930 16 247 0.0 0.0 0.00 0.00 0.00 97 1017.7
20260506103427 16 218 0.0 0.0 0.00 0.00 0.00 97 1018.0
20260506102924 16 215 0.0 0.0 0.00 0.00 0.00 97 1017.8
20260506102422 16 207 0.0 0.0 0.00 0.00 0.00 96 1017.5
20260506101919 16 198 0.0 3.2 0.00 0.00 0.00 96 1017.5
20260506101414 16 169 0.0 0.0 0.00 0.00 0.00 96 1017.6
20260506100913 16 169 0.0 0.0 0.00 0.00 0.00 96 1017.6
20260506100410 16 169 0.0 0.0 0.00 0.00 0.00 96 1017.5
20260506095908 17 169 0.0 0.0 0.00 0.00 0.00 96 1017.4
20260506095406 17 169 0.0 0.0 0.00 0.00 0.00 96 1017.5
20260506094902 17 169 0.0 0.0 0.00 0.00 0.00 95 1017.7
20260506094401 17 169 0.0 0.0 0.00 0.00 0.00 95 1017.4
20260506093858 17 168 0.0 0.0 0.00 0.00 0.00 95 1017.5
20260506093356 17 168 0.0 0.0 0.00 0.00 0.00 95 1017.5
20260506092854 17 168 0.0 0.0 0.00 0.00 0.00 94 1017.4
20260506092351 17 168 0.0 0.0 0.00 0.00 0.00 94 1017.6
20260506091847 17 168 0.0 0.0 0.00 0.00 0.00 93 1017.7
20260506091345 17 167 0.0 0.0 0.00 0.00 0.00 93 1017.6
20260506090837 17 167 0.0 0.0 0.00 0.00 0.00 93 1017.6
20260506090335 17 167 0.0 0.0 0.00 0.00 0.00 92 1017.5
20260506085831 17 167 0.0 0.0 0.00 0.00 0.00 91 1017.5
20260506085327 18 166 0.0 0.0 0.00 0.00 0.00 91 1017.6
20260506084824 18 172 0.0 0.0 0.00 0.00 0.00 90 1017.7
20260506084320 18 180 0.0 0.0 0.00 0.00 0.00 90 1017.7
20260506083817 18 177 0.0 1.6 0.00 0.00 0.00 89 1017.9
20260506083314 18 188 0.0 0.0 0.00 0.00 0.00 89 1017.6
20260506082807 18 179 0.0 0.0 0.00 0.00 0.00 88 1017.7
20260506082304 19 148 0.0 3.2 0.00 0.00 0.00 88 1017.7
20260506081759 18 165 0.0 1.6 0.00 0.00 0.00 88 1017.7
20260506081257 19 163 0.0 3.2 0.00 0.00 0.00 88 1017.5
20260506080755 19 159 0.0 1.6 0.00 0.00 0.00 88 1017.6
20260506080251 19 167 0.0 1.6 0.00 0.00 0.00 88 1017.6
20260506073235 19 171 0.0 1.6 0.00 0.00 0.00 87 1017.4
20260506072732 19 163 1.6 1.6 0.00 0.00 0.00 87 1017.4
20260506072229 19 163 1.6 3.2 0.00 0.00 0.00 86 1017.3
20260506071727 19 161 1.6 4.8 0.00 0.00 0.00 86 1017.4
20260506071225 19 160 0.0 4.8 0.00 0.00 0.00 86 1017.3
20260506070721 19 172 0.0 3.2 0.00 0.00 0.00 85 1017.5
20260506070218 19 174 0.0 3.2 0.00 0.00 0.00 85 1017.4
20260506062155 19 156 1.6 3.2 0.00 0.00 0.00 86 1017.8
20260506061651 18 172 0.0 1.6 0.00 0.00 0.00 86 1017.6
20260506061149 18 176 0.0 0.0 0.00 0.00 0.00 87 1017.7
20260506060647 18 157 0.0 0.0 0.00 0.00 0.00 87 1017.8
20260506060144 18 192 0.0 0.0 0.00 0.00 0.00 87 1017.7
20260506051116 19 174 0.0 0.0 0.00 0.00 0.00 82 1018.4
20260506050614 19 180 0.0 0.0 0.00 0.00 0.00 81 1018.5
20260506050111 19 170 3.2 3.2 0.00 0.00 0.00 81 1018.3
20260506045104 19 141 1.6 3.2 0.00 0.00 0.00 80 1018.5
20260506044602 19 169 0.0 1.6 0.00 0.00 0.00 80 1018.7
20260506044058 19 175 0.0 3.2 0.00 0.00 0.00 80 1018.7
20260506043556 19 168 0.0 1.6 0.00 0.00 0.00 81 1018.6
20260506043054 19 151 0.0 1.6 0.00 0.00 0.00 80 1018.7
20260506042553 19 191 0.0 0.0 0.00 0.00 0.00 81 1018.6
20260506042050 18 195 0.0 1.6 0.00 0.00 0.00 82 1018.7
20260506041549 18 180 0.0 0.0 0.00 0.00 0.00 83 1018.6